This is the latest recevied weather packets stored in our database for station/object N9OJR. If no packets are shown the sender has not sent any weather packets the latest 10 day(s).
| Time | Temp. | Humidity | Pressure | Rain* | Wind** | Luminosity | Snow |
|---|---|---|---|---|---|---|---|
| 1777358997 | 15.56° C | 88% | 1008.5 hPa | 3.05 mm | - | 0 W/m² | - |
| 1777358694 | 16.11° C | 85% | 1008.8 hPa | 4.83 mm | - | 0 W/m² | - |
| 1777358391 | 16.11° C | 83% | 1008.8 hPa | 1.78 mm | - | 0 W/m² | - |
| 1777358089 | 16.67° C | 79% | 1008.7 hPa | 0 mm | - | 0 W/m² | - |
| 1777357787 | 17.22° C | 77% | 1008.3 hPa | 0 mm | - | 0 W/m² | - |
| 1777357483 | 17.78° C | 74% | 1008.1 hPa | 0 mm | - | 0 W/m² | - |
| 1777357180 | 17.78° C | 72% | 1007.8 hPa | 0 mm | - | 0 W/m² | - |
| 1777356877 | 18.33° C | 70% | 1007.4 hPa | 0 mm | - | 0 W/m² | - |
| 1777356575 | 18.33° C | 69% | 1007.3 hPa | 0 mm | - | 0 W/m² | - |
| 1777356271 | 18.89° C | 68% | 1006.7 hPa | 0 mm | - | 0 W/m² | - |
| 1777355968 | 18.33° C | 69% | 1006.6 hPa | 0 mm | - | 0 W/m² | - |
| 1777355665 | 18.89° C | 68% | 1006.6 hPa | 0 mm | - | 0 W/m² | - |
| 1777355362 | 18.89° C | 67% | 1006.7 hPa | 0 mm | - | 0 W/m² | - |
| 1777355058 | 18.89° C | 65% | 1006.7 hPa | 0 mm | - | 0 W/m² | - |
| 1777354754 | 18.89° C | 63% | 1006.7 hPa | 0 mm | - | 0 W/m² | - |
| 1777354450 | 18.89° C | 61% | 1006.8 hPa | 0 mm | - | 0 W/m² | - |
| 1777354147 | 19.44° C | 61% | 1006.7 hPa | 0 mm | - | 0 W/m² | - |
| 1777353843 | 19.44° C | 60% | 1006.5 hPa | 0 mm | - | 0 W/m² | - |
| 1777353541 | 19.44° C | 58% | 1006.6 hPa | 0 mm | - | 0 W/m² | - |
| 1777353239 | 19.44° C | 57% | 1006.1 hPa | 0 mm | - | 0 W/m² | - |
| 1777352936 | 19.44° C | 56% | 1005.6 hPa | 0 mm | - | 0 W/m² | - |
| 1777352635 | 19.44° C | 55% | 1005.8 hPa | 0 mm | - | 0 W/m² | - |
| 1777352332 | 19.44° C | 54% | 1005.4 hPa | 0 mm | - | 0 W/m² | - |
| 1777352029 | 19.44° C | 55% | 1004.8 hPa | 0 mm | - | 0 W/m² | - |
| 1777351726 | 19.44° C | 54% | 1004.8 hPa | 0 mm | - | 0 W/m² | - |
* Rain latest hour (hover to see other rain measurements)
** Current wind speed in m/s (hover to see current wind gust speed)